Flag for Japan Weather past 2 weeks in Nagoya, Japan

Now
77 °F

Partly sunny.


Feels Like: 78 °F
Forecast: 69 / 84 °F
Wind: 3 mph from West

Location: Nagoya Airport

Current Time: Sep 2, 2015 at 7:26:50 AM

Latest Report: Sep 2, 2015 at 6:30 AM


Visibility: N/A

Pressure: 29.86 "Hg

Humidity: 94%

Dew point: 75 °F

Location of NagoyaLocation

Historic Weather in Nagoya — Graph

°F

Nagoya temperature yesterday

Maximum temperature yesterday: 82 °F (at 3:00 PM)
Minimum temperature yesterday: 73 °F (at 12:00 AM)
Average temperature yesterday: 77 °F

Past Weeks' High & Low Weather Summary

 TemperatureHumidityPressure
High88 °F (Aug 22, 1:30 PM)94% (Aug 20, 2:30 AM)29.95 "Hg (Aug 20, 2:30 AM)
Low70 °F (Aug 25, 8:30 PM)55% (Aug 23, 10:30 AM)29.47 "Hg (Aug 25, 9:00 PM)
Average79 °F80%29.76 "Hg
* Reported Aug 18 5:00 AM — Sep 2 5:30 AM, Nagoya, Weather by CustomWeather, © 2015

Note: Actual official high and low records may vary slightly from our data, if they occured in-between our weather recording intervals... More about our weather records

Advertising

Nagoya weather history for previous 24 hours

 ConditionsComfort  
Time TempWeatherWind HumidityBarometerVisibility
5:30 AM
Wed, Sep 2
77 °FBroken clouds.3 mph94%29.83 "HgN/A
5:00 AM77 °FPartly cloudy.2 mph89%29.83 "HgN/A
4:30 AM77 °FSprinkles. Partly cloudy.3 mph94%29.83 "HgN/A
4:00 AM77 °FScattered showers. Passing clouds.3 mph94%29.83 "HgN/A
3:30 AM77 °FSprinkles. Partly cloudy.6 mph94%29.83 "HgN/A
3:00 AM77 °FSprinkles. Partly cloudy.2 mph94%29.83 "HgN/A
2:30 AM77 °FSprinkles. Passing clouds.3 mph94%29.83 "HgN/A
2:00 AM77 °FPassing clouds.9 mph94%29.83 "HgN/A
1:30 AM77 °FPartly cloudy.8 mph89%29.83 "HgN/A
1:00 AM77 °FPassing clouds.9 mph94%29.83 "HgN/A
12:30 AM77 °FPassing clouds.9 mph89%29.83 "HgN/A
12:00 AM77 °FPartly cloudy.10 mph89%29.83 "HgN/A
11:30 PM
Tue, Sep 1
77 °FPassing clouds.12 mph89%29.83 "HgN/A
11:00 PM77 °FPassing clouds.13 mph94%29.83 "HgN/A
10:30 PM77 °FPassing clouds.13 mph94%29.86 "HgN/A
10:00 PM77 °FPartly cloudy.10 mph94%29.86 "HgN/A
9:30 PM77 °FPartly cloudy.15 mph94%29.86 "HgN/A
9:00 PM77 °FPassing clouds.13 mph94%29.86 "HgN/A
8:30 PM77 °FPartly cloudy.14 mph94%29.86 "HgN/A
8:00 PM79 °FPassing clouds.16 mph89%29.86 "HgN/A
7:30 PM77 °FPassing clouds.16 mph94%29.86 "HgN/A
7:00 PM77 °FPassing clouds.16 mph94%29.83 "HgN/A
6:30 PM77 °FSprinkles. Partly cloudy.20 mph94%29.83 "Hg5 mi
6:00 PM77 °FRain showers. Broken clouds.17 mph94%29.83 "Hg4 mi
5:30 PM79 °FSprinkles. Broken clouds.18 mph84%29.86 "Hg6 mi
5:00 PM79 °FSprinkles. Broken clouds.18 mph84%29.83 "HgN/A
4:30 PM79 °FScattered showers. Broken clouds.20 mph84%29.83 "HgN/A
4:00 PM81 °FScattered showers. Broken clouds.20 mph79%29.83 "HgN/A
3:30 PM81 °FScattered showers. Broken clouds.20 mph79%29.83 "HgN/A
3:00 PM82 °FScattered showers. Broken clouds.18 mph74%29.83 "HgN/A
2:30 PM81 °FSprinkles. Broken clouds.20 mph79%29.83 "HgN/A
2:00 PM81 °FBroken clouds.21 mph79%29.86 "HgN/A
1:30 PM81 °FBroken clouds.22 mph79%29.86 "HgN/A
12:30 PM79 °FPartly sunny.21 mph79%29.89 "HgN/A
12:00 PM79 °FPartly sunny.20 mph79%29.89 "HgN/A
11:30 AM79 °FPartly sunny.17 mph79%29.89 "HgN/A
11:00 AM81 °FBroken clouds.20 mph74%29.92 "HgN/A
10:30 AM79 °FPartly sunny.18 mph79%29.92 "HgN/A
10:00 AM79 °FPartly sunny.16 mph84%29.92 "HgN/A
9:30 AM79 °FSprinkles. Partly sunny.17 mph84%29.92 "HgN/A
9:00 AM77 °FSprinkles. Partly sunny.12 mph89%29.92 "HgN/A
8:30 AM77 °FScattered showers. Broken clouds.8 mph89%29.92 "Hg6 mi
8:00 AM75 °FSprinkles. Broken clouds.12 mph89%29.92 "Hg4 mi
7:30 AM75 °FSprinkles. Fog.17 mph94%29.92 "Hg3 mi
Weather by CustomWeather, © 2015

See weather overviewHow to use our weather pages